Weather History for Rochelle, IL

Change the Weather History Date:

Tuesday, February 12, 2013

  Actual Average (KRFD) Record (KRFD)
Temperature  
Mean Temperature 26 °F 25 °F  
Max Temperature 30 °F 33 °F 56 °F (1976)
Min Temperature 22 °F 17 °F -15 °F (1981)
Degree Days  
Heating Degree Days 39 40  
Month to date heating degree days 497  
Since 1 July heating degree days 4406  
Cooling Degree Days 0 0  
Month to date cooling degree days 0  
Year to date cooling degree days 0  
Moisture  
Dew Point 22 °F    
Average Humidity 84    
Maximum Humidity 96    
Minimum Humidity 73    
Precipitation  
Precipitation 0.00 in 0.05 in 0.92 in (1908)
Month to date precipitation 0.52  
Year to date precipitation 1.89  
Snow  
Snow 0.00 in 0.30 in 5.70 in (1994)
Month to date snowfall 3.6  
Since 1 July snowfall 26.9  
Snow Depth -    
Sea Level Pressure  
Sea Level Pressure 30.03 in    
Wind  
Wind Speed 13 mph (WSW)    
Max Wind Speed 21 mph    
Max Gust Speed 25 mph    
Visibility 10 miles    
Events      
T = Trace of Precipitation, MM = Missing Value Source: NWS Daily Summary

Daily Weather History Graph

Daily Weather History Graph

Search for Another Location

Airport:

Trip Planner

Search our weather history database for the weather conditions in past years. The results will help you decide how hot, cold, wet, or windy it might be!

Date:

Astronomy

Feb. 12, 2013 Rise Set
Actual Time 6:55 AM CST 5:25 PM CST
Civil Twilight 6:26 AM CST 5:54 PM CST
Nautical Twilight 5:54 AM CST 6:27 PM CST
Astronomical Twilight 5:21 AM CST 6:59 PM CST
Moon 7:49 AM CST (2/12) 8:30 PM CST (2/12)
Length of Visible Light 11h 27m
Length of Day
10h 30m
Waxing Crescent, 7% of the Moon is Illuminated
Feb 12
Waxing Crescent
Feb 17
First Quarter
Feb 25
Full
Mar 4
Last Quarter
Mar 11
New

Hourly Weather History & Observations

Time (CST) Temp. Windchill Dew Point Humidity Pressure Visibility Wind Dir Wind Speed Gust Speed Precip Events Conditions
12:15 AM 25.5 °F 11.3 °F 19.6 °F 78% 30.07 in 10.0 mi WNW 20.7 mph - N/A   Overcast
12:35 AM 25.3 °F 12.2 °F 19.4 °F 78% 30.06 in 10.0 mi WNW 17.3 mph 24.2 mph N/A   Overcast
12:55 AM 25.5 °F 13.8 °F 20.1 °F 80% 30.07 in 10.0 mi WNW 13.8 mph 19.6 mph N/A   Overcast
1:15 AM 25.7 °F 14.6 °F 20.3 °F 80% 30.06 in 10.0 mi WNW 12.7 mph - N/A   Overcast
1:35 AM 25.7 °F 15.1 °F 20.3 °F 80% 30.07 in 10.0 mi WNW 11.5 mph 18.4 mph N/A   Overcast
1:55 AM 26.2 °F 15.2 °F 21.2 °F 81% 30.08 in 10.0 mi WNW 12.7 mph - N/A   Overcast
2:15 AM 26.6 °F 15.2 °F 21.9 °F 82% 30.08 in 10.0 mi West 13.8 mph 20.7 mph N/A   Overcast
2:35 AM 26.1 °F 15.0 °F 20.8 °F 81% 30.08 in 10.0 mi West 12.7 mph - N/A   Overcast
2:55 AM 25.5 °F 11.3 °F 19.9 °F 79% 30.08 in 10.0 mi WNW 20.7 mph 25.3 mph N/A   Overcast
3:15 AM 24.8 °F 10.7 °F 19.4 °F 80% 30.08 in 10.0 mi WNW 19.6 mph - N/A   Mostly Cloudy
3:35 AM 24.6 °F 10.5 °F 19.4 °F 81% 30.08 in 10.0 mi WNW 19.6 mph 25.3 mph N/A   Mostly Cloudy
3:55 AM 24.8 °F 12.9 °F 19.6 °F 81% 30.09 in 10.0 mi WNW 13.8 mph - N/A   Overcast
4:15 AM 24.8 °F 11.5 °F 19.6 °F 81% 30.09 in 10.0 mi West 17.3 mph - N/A   Overcast
4:35 AM 24.8 °F 11.5 °F 19.8 °F 81% 30.08 in 10.0 mi WNW 17.3 mph - N/A   Overcast
4:55 AM 24.8 °F 13.4 °F 19.9 °F 82% 30.08 in 10.0 mi WNW 12.7 mph 17.3 mph N/A   Overcast
5:15 AM 25.2 °F 13.9 °F 20.5 °F 82% 30.08 in 10.0 mi West 12.7 mph - N/A   Overcast
5:35 AM 25.3 °F 15.3 °F 21.0 °F 84% 30.08 in 10.0 mi WNW 10.4 mph - N/A   Overcast
6:15 AM 25.3 °F 13.6 °F 20.7 °F 82% 30.08 in 10.0 mi West 13.8 mph 20.7 mph N/A   Overcast
6:35 AM 24.8 °F 16.1 °F 20.5 °F 84% 30.06 in 10.0 mi WNW 8.1 mph - N/A   Overcast
6:55 AM 25.0 °F 14.2 °F 21.0 °F 85% 30.07 in 10.0 mi West 11.5 mph - N/A   Overcast
7:15 AM 24.8 °F 12.9 °F 20.8 °F 85% 30.10 in 10.0 mi West 13.8 mph 19.6 mph N/A   Overcast
7:35 AM 24.6 °F 13.2 °F 20.3 °F 84% 30.09 in 10.0 mi WNW 12.7 mph - N/A   Overcast
7:55 AM 24.6 °F 13.2 °F 20.3 °F 84% 30.10 in 10.0 mi West 12.7 mph 17.3 mph N/A   Overcast
8:15 AM 24.8 °F 14.6 °F 20.3 °F 83% 30.09 in 10.0 mi WNW 10.4 mph - N/A   Overcast
8:35 AM 25.3 °F 16.0 °F 21.0 °F 84% 30.09 in 10.0 mi West 9.2 mph - N/A   Overcast
8:55 AM 25.5 °F 15.5 °F 21.0 °F 83% 30.10 in 10.0 mi West 10.4 mph - N/A   Overcast
9:15 AM 25.7 °F 14.6 °F 21.4 °F 84% 30.10 in 10.0 mi West 12.7 mph - N/A   Overcast
9:35 AM 26.1 °F 15.0 °F 21.2 °F 82% 30.10 in 10.0 mi West 12.7 mph - N/A   Overcast
9:55 AM 26.6 °F 15.7 °F 21.7 °F 82% 30.08 in 10.0 mi WNW 12.7 mph 16.1 mph N/A   Overcast
10:15 AM 26.6 °F 17.5 °F 21.9 °F 82% 30.09 in 10.0 mi WNW 9.2 mph - N/A   Overcast
10:35 AM 27.0 °F 16.7 °F 22.3 °F 83% 30.10 in 10.0 mi WSW 11.5 mph - N/A   Overcast
10:55 AM 26.6 °F 17.5 °F 22.1 °F 83% 30.09 in 10.0 mi WSW 9.2 mph - N/A   Overcast
11:15 AM 26.6 °F 14.7 °F 21.4 °F 81% 30.09 in 10.0 mi West 15.0 mph - N/A   Overcast
11:35 AM 26.6 °F 15.2 °F 21.6 °F 81% 30.07 in 10.0 mi West 13.8 mph 18.4 mph N/A   Overcast
11:55 AM 26.6 °F 16.8 °F 21.2 °F 80% 30.06 in 10.0 mi NW 10.4 mph - N/A   Overcast
12:15 PM 27.1 °F 15.9 °F 21.9 °F 81% 30.04 in 10.0 mi WNW 13.8 mph - N/A   Overcast
12:35 PM 27.1 °F 16.4 °F 21.4 °F 79% 30.04 in 10.0 mi WNW 12.7 mph - N/A   Overcast
12:55 PM 27.5 °F 17.4 °F 20.7 °F 75% 30.04 in 10.0 mi West 11.5 mph - N/A   Overcast
1:15 PM 27.9 °F 18.4 °F 20.5 °F 74% 30.03 in 10.0 mi NW 10.4 mph - N/A   Overcast
1:35 PM 28.4 °F 17.5 °F 21.4 °F 75% 30.03 in 10.0 mi West 13.8 mph - N/A   Overcast
1:55 PM 28.9 °F 18.6 °F 21.6 °F 74% 30.03 in 10.0 mi WNW 12.7 mph 18.4 mph N/A   Overcast
2:15 PM 29.1 °F 20.0 °F 22.3 °F 76% 30.02 in 10.0 mi West 10.4 mph 17.3 mph N/A   Overcast
2:35 PM 29.8 °F 20.9 °F 22.3 °F 73% 30.02 in 10.0 mi WNW 10.4 mph 16.1 mph N/A   Mostly Cloudy
2:55 PM 30.0 °F 21.1 °F 22.8 °F 75% 30.01 in 10.0 mi West 10.4 mph - N/A   Scattered Clouds
3:15 PM 29.8 °F 23.0 °F 22.6 °F 75% 30.01 in 10.0 mi West 6.9 mph - N/A   Clear
3:35 PM 30.4 °F 21.0 °F 23.4 °F 75% 30.00 in 10.0 mi West 11.5 mph - N/A   Scattered Clouds
3:55 PM 30.7 °F 22.6 °F 24.1 °F 76% 30.00 in 10.0 mi WSW 9.2 mph - N/A   Scattered Clouds
4:15 PM 30.6 °F 21.8 °F 24.4 °F 78% 29.99 in 10.0 mi SW 10.4 mph - N/A   Clear
4:35 PM 30.2 °F 21.9 °F 25.0 °F 81% 29.99 in 10.0 mi SW 9.2 mph - N/A   Clear
4:55 PM 30.0 °F 22.4 °F 24.8 °F 81% 29.99 in 10.0 mi WSW 8.1 mph - N/A   Clear
5:15 PM 30.0 °F 22.4 °F 25.2 °F 82% 29.99 in 10.0 mi SW 8.1 mph - N/A   Clear
5:35 PM 29.7 °F 22.8 °F 25.3 °F 84% 29.98 in 10.0 mi SW 6.9 mph - N/A   Clear
5:55 PM 29.3 °F 22.3 °F 25.5 °F 86% 29.97 in 10.0 mi SW 6.9 mph - N/A   Clear
6:15 PM 28.9 °F 23.9 °F 25.5 °F 87% 29.96 in 10.0 mi SW 4.6 mph - N/A   Clear
6:35 PM 28.4 °F 23.3 °F 25.7 °F 90% 29.95 in 10.0 mi SSW 4.6 mph - N/A   Clear
6:55 PM 27.1 °F 20.7 °F 25.0 °F 92% 29.96 in 10.0 mi South 5.8 mph - N/A   Clear
7:15 PM 26.8 °F 20.2 °F 24.8 °F 92% 29.95 in 10.0 mi South 5.8 mph - N/A   Clear
7:35 PM 26.4 °F 20.9 °F 24.6 °F 93% 29.95 in 10.0 mi South 4.6 mph - N/A   Clear
8:15 PM 24.8 °F 16.9 °F 23.4 °F 94% 29.95 in 7.0 mi SSW 6.9 mph - N/A   Clear
8:35 PM 24.8 °F 19.1 °F 23.7 °F 96% 29.95 in 7.0 mi South 4.6 mph - N/A   Clear
8:55 PM 24.4 °F 17.5 °F 23.4 °F 96% 29.94 in 7.0 mi South 5.8 mph - N/A   Clear
9:15 PM 24.4 °F 17.5 °F 23.4 °F 96% 29.93 in 7.0 mi South 5.8 mph - N/A   Clear
9:35 PM 24.6 °F 20.3 °F 23.4 °F 95% 29.93 in 7.0 mi SSE 3.5 mph - N/A   Clear
9:55 PM 23.9 °F 16.8 °F 22.6 °F 95% 29.93 in 7.0 mi SSE 5.8 mph - N/A   Clear
10:15 PM 23.5 °F 16.4 °F 22.3 °F 95% 29.93 in 7.0 mi SSE 5.8 mph - N/A   Clear
10:35 PM 23.7 °F 16.6 °F 22.8 °F 96% 29.92 in 7.0 mi SSE 5.8 mph - N/A   Clear
10:55 PM 23.9 °F 16.8 °F 23.0 °F 96% 29.92 in 7.0 mi South 5.8 mph - N/A   Clear
11:15 PM 23.2 °F 17.2 °F 21.9 °F 95% 29.91 in 7.0 mi South 4.6 mph - N/A   Clear
11:35 PM 22.8 °F 16.7 °F 21.7 °F 96% 29.90 in 7.0 mi South 4.6 mph - N/A   Clear
11:55 PM 22.8 °F 18.2 °F 21.7 °F 96% 29.90 in 7.0 mi South 3.5 mph - N/A   Clear